Regional Weather Roundup
Issued by NWS

Home | Current Version | Previous Version | Graphics & Text | Print | Product List | Glossary On
Versions: 1 2 3 4 5 6 7 8 9 10 11 12 13 14 15 16 17 18 19 20 21 22 23 24 25 26 27 28 29 30 31 32 33 34 35 36 37 38 39 40 41 42 43 44 45 46 47 48 49 50
000
ASUS44 KMEG 031900
RWRTN
TENNESSEE HOURLY STATE WEATHER ROUNDUP
NATIONAL WEATHER SERVICE MEMPHIS TN
100 PM CST SAT DEC 03 2016

TNZ002-004-019-021-049-052-054-088>092-032000-
WEST TENNESSEE

CITY           SKY/WX    TMP DP  RH WIND       PRES   REMARKS
MEMPHIS INTL   LGT RAIN  47  39  74 SE5       30.29F
NWS MEMPHIS      N/A     46 N/A N/A MISG        N/A
JACKSON        CLOUDY    46  32  58 E6        30.30
DYERSBURG      CLOUDY   N/A N/A N/A SE6       30.29F
UNION CITY     MOSUNNY   43  34  70 CALM      30.30F
PARIS          SUNNY     39  30  70 NE9       30.31F WCI  33
LEXINGTON      SUNNY     45  30  57 VRB6      30.29F
$$

TNZ008-025-027-028-033-062-065-066-032000-
NORTH MIDDLE TENNESSEE

CITY           SKY/WX    TMP DP  RH WIND       PRES   REMARKS
NASHVILLE      CLOUDY    44  30  57 N3        30.32F
CLARKSVILLE    CLOUDY    42  31  64 VRB3      30.33F
SMYRNA         CLOUDY    44  31  60 N6        30.33F
CROSSVILLE     CLOUDY    41  29  62 VRB3      30.27F
$$

TNZ061-075-076-078-094-096-097-032000-
SOUTH MIDDLE TENNESSEE

CITY           SKY/WX    TMP DP  RH WIND       PRES   REMARKS
TULLAHOMA      SUNNY     45  30  57 N5        30.29S
WINCHESTER     SUNNY     46  34  61 NW6       30.28S
MCMINNVILLE    SUNNY     43  30  61 N7        30.29S
SHELBYVILLE    SUNNY     45  36  70 N7        30.31F
$$

TNZ017-018-042-046-047-032000-
NORTHEAST TENNESSEE

CITY           SKY/WX    TMP DP  RH WIND       PRES   REMARKS
TRI CITIES     CLOUDY    42  28  57 E3        30.29R
$$

TNZ012-013-036-069-073-074-032000-
CENTRAL EAST TENNESSEE

CITY           SKY/WX    TMP DP  RH WIND       PRES   REMARKS
KNOXVILLE      CLOUDY    45  32  60 N5        30.27F
OAK RIDGE      CLOUDY    45  30  55 E5        30.29F
GATLINBURG     SUNNY     43  30  61 VRB5      30.27F
$$

TNZ083-085-099-032000-
SOUTHEAST TENNESSEE

CITY           SKY/WX    TMP DP  RH WIND       PRES   REMARKS
CHATTANOOGA    CLOUDY    48  32  53 N9        30.27F
$$

SKY/WX REPORTED AS FAIR MEANS FEW OR NO CLOUDS BELOW
12 THOUSAND FEET.





USA.gov is the U.S. government's official web portal to all federal, state and local government web resources and services.